Regional Weather Roundup
Issued by NWS

Home | Current Version | Previous Version | Graphics & Text | Print | Product List | Glossary On
Versions: 1 2 3 4 5 6 7 8 9 10 11 12 13 14 15 16 17 18 19 20 21 22 23 24 25 26 27 28 29 30 31 32 33 34 35 36 37 38 39 40 41 42 43 44 45 46 47 48 49 50
693
ASUS43 KBIS 270310
RWRND

NORTH DAKOTA REGIONAL WEATHER ROUNDUP
NATIONAL WEATHER SERVICE BISMARCK ND
1000 PM CDT FRI AUG 26 2016

NOTE: "FAIR" INDICATES FEW OR NO CLOUDS BELOW 12,000 FEET WITH NO
SIGNIFICANT WEATHER AND/OR OBSTRUCTIONS TO VISIBILITY.


NDZ001>003-009>011-017-270400-
NORTHWEST NORTH DAKOTA

CITY           SKY/WX    TMP DP  RH WIND       PRES   REMARKS
WILLISTON      CLOUDY    64  45  49 CALM      29.95R
MINOT          MOCLDY    64  52  64 S14       29.92R
MINOT AFB      CLOUDY    62  51  68 S7        29.91R
$$

NDZ018>021-031>035-040>046-270400-
SOUTHWEST NORTH DAKOTA

CITY           SKY/WX    TMP DP  RH WIND       PRES   REMARKS
BISMARCK       CLEAR     58  54  86 S8        30.01R
DICKINSON      PTCLDY    57  48  72 S9        29.96R
GARRISON         N/A     58  54  86 S5        29.96R
HETTINGER ARPT PTCLDY    57  50  77 S12       30.00F
$$

NDZ004>008-012>016-024-026-027-054-270400-
NORTHEAST NORTH DAKOTA

CITY           SKY/WX    TMP DP  RH WIND       PRES   REMARKS
GRAND FORKS    PTCLDY    56  51  84 SW8       30.01R
GRND FRKS AFB  CLEAR     56  51  81 S6        30.01R
DEVILS LAKE    PTCLDY    62  50  64 S12       30.00S
$$

NDZ022-023-025-028>030-036>039-047>053-270400-
SOUTHEAST NORTH DAKOTA

CITY           SKY/WX    TMP DP  RH WIND       PRES   REMARKS
FARGO          MOCLDY    61  53  75 S6        30.05R
JAMESTOWN      PTCLDY    55  51  86 S7        30.03R
$$





USA.gov is the U.S. government's official web portal to all federal, state and local government web resources and services.